Hourly Data Report for August 20, 2018

CLYDE RIVER A
NUNAVUT
Current Station Operator: NAVCAN

70°29'09.000" N
68°31'01.000" W
26.50 m
2400804
71090
YCY

Download Data

Hourly Data (August 2018)
Hourly Data Report for August 20, 2018
TIME
LST
Temp Definition
°C
Dew Point Definition
°C
Rel Hum Definition
%
Precip. Amount Definition
mm

Wind Dir Definition
10's deg

Wind Spd Definition
km/h
Visibility Definition
km
Stn Press Definition
kPa
Hmdx Definition


Wind Chill Definition


Weather Definition


00:00 4.9 3.6 91 0.0 14 5 16.1 99.63     LegendNANA
01:00 3.4 3.0 97 0.0 11 8 16.1 99.62     LegendNANA
02:00 3.2 3.2 100 0.0 34 5 16.1 99.63     LegendNANA
03:00 4.4 4.3 99 0.0 12 11 16.1 99.62     LegendNANA
04:00 4.7 4.3 97 0.0 11 13 16.1 99.61     LegendNANA
05:00 4.7 4.3 97 0.0 12 18 16.1 99.62     LegendNANA
06:00 4.8 4.4 97 0.0 13 15 16.1 99.65     LegendNANA
07:00 4.0 4.0 100 0.0 12 21 0.4 99.64     Fog
08:00 3.4 3.4 100 0.0 11 18 0.6 99.62     Fog
09:00 3.0 2.9 99 0.0 11 18 1.6 99.59     Rain, Fog
10:00 2.8 2.7 99 0.0 12 15 9.7 99.57     Fog
11:00 3.0 2.7 98 0.0 9 17 16.1 99.51     LegendNANA
12:00 3.1 2.2 94 0.0 9 11 16.1 99.48     LegendNANA
13:00 2.9 2.6 98 0.0 10 13 16.1 99.46     LegendNANA
14:00 3.1 3.0 99 0.0 9 9 12.9 99.43     LegendNANA
15:00 3.0 2.9 99 0.0 10 13 16.1 99.43     LegendNANA
16:00 2.7 2.7 100 0.0 13 9 9.7 99.45     Fog
17:00 2.8 2.4 97 0.0 10 13 16.1 99.45     LegendNANA
18:00 2.7 2.7 100 0.0 11 9 12.9 99.46     LegendNANA
19:00 2.9 2.9 100 0.0 11 5 2.0 99.46     Fog
20:00 2.9 2.9 100 0.0 11 8 14.5 99.46     LegendNANA
21:00 2.9 2.9 100 0.0 8 5 16.1 99.45     LegendNANA
22:00 3.0 3.0 100 0.0 5 5 16.1 99.45     Rain
23:00 3.1 3.1 100 0.2 3 5 8.1 99.45     Rain, Fog

Notes on Data Quality.

Legend

  • E = Estimated
  • M = Missing
  • NA = Not Available*
  • [empty] = Indicates an unobserved value
Date modified: